Time,TemperatureF,DewpointF,PressureIn,WindDirection,WindDirectionDegrees,WindSpeedMPH,WindSpeedGustMPH,Humidity,HourlyPrecipIn,Conditions,Clouds,dailyrainin,SoftwareType,DateUTC
2013-10-25 00:11:00,31.1,27.0,30.32,West,279,0.0,-999.0,84,-99.99,,,0.00,weatherlink.com 1.10,2013-10-25 05:11:00,
2013-10-25 00:26:00,30.8,27.0,30.33,West,280,0.0,-999.0,86,-99.99,,,0.00,weatherlink.com 1.10,2013-10-25 05:26:00,
2013-10-25 00:41:00,31.5,28.0,30.33,WNW,288,0.0,-999.0,85,-99.99,,,0.00,weatherlink.com 1.10,2013-10-25 05:41:00,
2013-10-25 00:56:00,31.6,27.0,30.33,West,279,3.0,-999.0,84,-99.99,,,0.00,weatherlink.com 1.10,2013-10-25 05:56:00,
2013-10-25 01:11:00,31.2,27.0,30.33,West,279,0.0,-999.0,85,-99.99,,,0.00,weatherlink.com 1.10,2013-10-25 06:11:00,
2013-10-25 01:26:00,30.6,27.0,30.34,West,273,3.0,-999.0,86,-99.99,,,0.00,weatherlink.com 1.10,2013-10-25 06:26:00,
2013-10-25 01:41:00,30.6,27.0,30.33,West,264,2.0,-999.0,86,-99.99,,,0.00,weatherlink.com 1.10,2013-10-25 06:41:00,
2013-10-25 01:56:00,30.8,27.0,30.33,West,265,3.0,-999.0,86,-99.99,,,0.00,weatherlink.com 1.10,2013-10-25 06:56:00,
2013-10-25 02:12:00,31.1,27.0,30.34,West,281,2.0,-999.0,85,-99.99,,,0.00,weatherlink.com 1.10,2013-10-25 07:12:00,
2013-10-25 02:27:00,30.7,27.0,30.34,West,265,1.0,-999.0,85,-99.99,,,0.00,weatherlink.com 1.10,2013-10-25 07:27:00,
2013-10-25 02:42:00,30.2,27.0,30.34,West,261,0.0,-999.0,86,-99.99,,,0.00,weatherlink.com 1.10,2013-10-25 07:42:00,
2013-10-25 02:57:00,29.7,26.0,30.34,WSW,257,0.0,-999.0,86,-99.99,,,0.00,weatherlink.com 1.10,2013-10-25 07:57:00,
2013-10-25 03:12:00,29.4,26.0,30.34,West,272,2.0,-999.0,87,-99.99,,,0.00,weatherlink.com 1.10,2013-10-25 08:12:00,
2013-10-25 03:27:00,29.0,26.0,30.34,West,263,3.0,-999.0,87,-99.99,,,0.00,weatherlink.com 1.10,2013-10-25 08:27:00,
2013-10-25 03:42:00,28.7,26.0,30.34,WSW,254,3.0,-999.0,88,-99.99,,,0.00,weatherlink.com 1.10,2013-10-25 08:42:00,
2013-10-25 03:57:00,28.5,25.0,30.35,WSW,254,2.0,-999.0,88,-99.99,,,0.00,weatherlink.com 1.10,2013-10-25 08:57:00,
2013-10-25 04:12:00,28.2,25.0,30.35,West,261,0.0,-999.0,89,-99.99,,,0.00,weatherlink.com 1.10,2013-10-25 09:12:00,
2013-10-25 04:27:00,28.1,25.0,30.35,West,267,2.0,-999.0,89,-99.99,,,0.00,weatherlink.com 1.10,2013-10-25 09:27:00,
2013-10-25 04:42:00,27.8,25.0,30.35,West,259,0.0,-999.0,89,-99.99,,,0.00,weatherlink.com 1.10,2013-10-25 09:42:00,
2013-10-25 04:57:00,27.5,25.0,30.35,West,259,3.0,-999.0,90,-99.99,,,0.00,weatherlink.com 1.10,2013-10-25 09:57:00,
2013-10-25 05:12:00,27.5,25.0,30.35,WSW,250,4.0,-999.0,90,-99.99,,,0.00,weatherlink.com 1.10,2013-10-25 10:12:00,
2013-10-25 05:27:00,27.4,25.0,30.35,WSW,250,3.0,-999.0,89,-99.99,,,0.00,weatherlink.com 1.10,2013-10-25 10:27:00,
2013-10-25 05:42:00,27.5,25.0,30.36,WSW,256,5.0,-999.0,89,-99.99,,,0.00,weatherlink.com 1.10,2013-10-25 10:42:00,
2013-10-25 05:57:00,28.1,25.0,30.36,WSW,251,2.0,-999.0,89,-99.99,,,0.00,weatherlink.com 1.10,2013-10-25 10:57:00,
2013-10-25 06:12:00,28.6,26.0,30.36,WSW,257,3.0,-999.0,88,-99.99,,,0.00,weatherlink.com 1.10,2013-10-25 11:12:00,
2013-10-25 06:27:00,29.2,26.0,30.36,WSW,253,3.0,-999.0,87,-99.99,,,0.00,weatherlink.com 1.10,2013-10-25 11:27:00,
2013-10-25 06:42:00,29.5,26.0,30.36,West,259,3.0,-999.0,87,-99.99,,,0.00,weatherlink.com 1.10,2013-10-25 11:42:00,
2013-10-25 06:57:00,29.7,26.0,30.36,WSW,245,2.0,-999.0,87,-99.99,,,0.00,weatherlink.com 1.10,2013-10-25 11:57:00,
2013-10-25 07:12:00,30.1,26.0,30.36,WSW,249,3.0,-999.0,86,-99.99,,,0.00,weatherlink.com 1.10,2013-10-25 12:12:00,
2013-10-25 07:27:00,30.5,27.0,30.36,WSW,253,4.0,-999.0,86,-99.99,,,0.00,weatherlink.com 1.10,2013-10-25 12:27:00,
2013-10-25 07:42:00,30.9,27.0,30.36,WSW,252,3.0,-999.0,85,-99.99,,,0.00,weatherlink.com 1.10,2013-10-25 12:42:00,
2013-10-25 07:57:00,31.4,27.0,30.36,WSW,252,4.0,-999.0,84,-99.99,,,0.00,weatherlink.com 1.10,2013-10-25 12:57:00,
2013-10-25 08:12:00,31.8,27.0,30.36,WSW,252,2.0,-999.0,83,-99.99,,,0.00,weatherlink.com 1.10,2013-10-25 13:12:00,
2013-10-25 08:27:00,32.2,28.0,30.36,WSW,245,1.0,-999.0,83,-99.99,,,0.00,weatherlink.com 1.10,2013-10-25 13:27:00,
2013-10-25 08:42:00,32.6,28.0,30.36,WSW,250,1.0,-999.0,82,-99.99,,,0.00,weatherlink.com 1.10,2013-10-25 13:42:00,
2013-10-25 08:57:00,33.3,28.0,30.36,WSW,252,2.0,-999.0,82,-99.99,,,0.00,weatherlink.com 1.10,2013-10-25 13:57:00,
2013-10-25 09:12:00,33.9,29.0,30.36,WSW,252,1.0,-999.0,82,-99.99,,,0.00,weatherlink.com 1.10,2013-10-25 14:12:00,
2013-10-25 09:27:00,34.8,29.0,30.36,WSW,253,4.0,-999.0,80,-99.99,,,0.00,weatherlink.com 1.10,2013-10-25 14:27:00,
2013-10-25 09:42:00,35.7,30.0,30.36,West,270,3.0,-999.0,79,-99.99,,,0.00,weatherlink.com 1.10,2013-10-25 14:42:00,
2013-10-25 09:57:00,36.3,30.0,30.36,WSW,258,4.0,-999.0,77,-99.99,,,0.00,weatherlink.com 1.10,2013-10-25 14:57:00,
2013-10-25 10:12:00,36.6,28.0,30.35,WSW,247,4.0,-999.0,72,-99.99,,,0.00,weatherlink.com 1.10,2013-10-25 15:12:00,
2013-10-25 10:27:00,37.5,30.0,30.34,SW,234,3.0,-999.0,73,-99.99,,,0.00,weatherlink.com 1.10,2013-10-25 15:27:00,
2013-10-25 10:43:00,39.4,30.0,30.33,WSW,253,4.0,-999.0,70,-99.99,,,0.00,weatherlink.com 1.10,2013-10-25 15:43:00,
2013-10-25 10:58:00,41.4,29.0,30.32,West,262,5.0,-999.0,61,-99.99,,,0.00,weatherlink.com 1.10,2013-10-25 15:58:00,
2013-10-25 11:13:00,42.0,27.0,30.31,West,262,7.0,-999.0,56,-99.99,,,0.00,weatherlink.com 1.10,2013-10-25 16:13:00,
2013-10-25 11:28:00,42.7,28.0,30.31,SW,217,4.0,-999.0,56,-99.99,,,0.00,weatherlink.com 1.10,2013-10-25 16:28:00,
2013-10-25 11:43:00,43.5,29.0,30.30,WSW,246,4.0,-999.0,58,-99.99,,,0.00,weatherlink.com 1.10,2013-10-25 16:43:00,
2013-10-25 11:58:00,42.9,29.0,30.29,SW,219,2.0,-999.0,59,-99.99,,,0.00,weatherlink.com 1.10,2013-10-25 16:58:00,
2013-10-25 12:13:00,42.9,30.0,30.28,West,261,13.0,-999.0,60,-99.99,,,0.00,weatherlink.com 1.10,2013-10-25 17:13:00,
2013-10-25 12:28:00,43.9,30.0,30.26,West,261,4.0,-999.0,58,-99.99,,,0.00,weatherlink.com 1.10,2013-10-25 17:28:00,
2013-10-25 12:43:00,44.6,29.0,30.25,West,271,10.0,-999.0,55,-99.99,,,0.00,weatherlink.com 1.10,2013-10-25 17:43:00,
2013-10-25 12:58:00,45.2,28.0,30.24,WSW,256,2.0,-999.0,52,-99.99,,,0.00,weatherlink.com 1.10,2013-10-25 17:58:00,
2013-10-25 13:13:00,45.5,29.0,30.23,West,261,7.0,-999.0,53,-99.99,,,0.00,weatherlink.com 1.10,2013-10-25 18:13:00,
2013-10-25 13:28:00,46.1,29.0,30.23,WSW,245,12.0,-999.0,52,-99.99,,,0.00,weatherlink.com 1.10,2013-10-25 18:28:00,
2013-10-25 13:43:00,46.3,29.0,30.21,WSW,258,3.0,-999.0,52,-99.99,,,0.00,weatherlink.com 1.10,2013-10-25 18:43:00,
2013-10-25 13:58:00,46.8,29.0,30.20,West,265,4.0,-999.0,50,-99.99,,,0.00,weatherlink.com 1.10,2013-10-25 18:58:00,
2013-10-25 14:13:00,47.9,29.0,30.19,WSW,241,10.0,-999.0,49,-99.99,,,0.00,weatherlink.com 1.10,2013-10-25 19:13:00,
2013-10-25 14:28:00,48.2,30.0,30.18,SW,231,7.0,-999.0,49,-99.99,,,0.00,weatherlink.com 1.10,2013-10-25 19:28:00,
2013-10-25 14:43:00,48.7,30.0,30.17,West,265,10.0,-999.0,48,-99.99,,,0.00,weatherlink.com 1.10,2013-10-25 19:43:00,
2013-10-25 14:58:00,48.2,29.0,30.16,SW,234,15.0,-999.0,48,-99.99,,,0.00,weatherlink.com 1.10,2013-10-25 19:58:00,
2013-10-25 15:13:00,49.2,30.0,30.14,WSW,248,15.0,-999.0,47,-99.99,,,0.00,weatherlink.com 1.10,2013-10-25 20:13:00,
2013-10-25 15:28:00,48.8,30.0,30.13,WSW,238,12.0,-999.0,48,-99.99,,,0.00,weatherlink.com 1.10,2013-10-25 20:28:00,
2013-10-25 15:43:00,49.4,31.0,30.13,WSW,246,3.0,-999.0,49,-99.99,,,0.00,weatherlink.com 1.10,2013-10-25 20:43:00,
2013-10-25 15:59:00,49.0,31.0,30.11,West,260,8.0,-999.0,51,-99.99,,,0.00,weatherlink.com 1.10,2013-10-25 20:59:00,
2013-10-25 16:14:00,48.8,31.0,30.09,SW,220,3.0,-999.0,51,-99.99,,,0.00,weatherlink.com 1.10,2013-10-25 21:14:00,
2013-10-25 16:29:00,48.5,31.0,30.08,WSW,247,15.0,-999.0,51,-99.99,,,0.00,weatherlink.com 1.10,2013-10-25 21:29:00,
2013-10-25 16:44:00,48.7,31.0,30.07,West,269,9.0,-999.0,50,-99.99,,,0.00,weatherlink.com 1.10,2013-10-25 21:44:00,
2013-10-25 16:59:00,48.9,30.0,30.06,SSW,211,8.0,-999.0,48,-99.99,,,0.00,weatherlink.com 1.10,2013-10-25 21:59:00,
2013-10-25 17:14:00,48.6,30.0,30.05,SW,234,9.0,-999.0,48,-99.99,,,0.00,weatherlink.com 1.10,2013-10-25 22:14:00,
2013-10-25 17:29:00,48.4,30.0,30.03,SW,225,10.0,-999.0,49,-99.99,,,0.00,weatherlink.com 1.10,2013-10-25 22:29:00,
2013-10-25 17:44:00,48.3,29.0,30.02,SW,216,10.0,-999.0,48,-99.99,,,0.00,weatherlink.com 1.10,2013-10-25 22:44:00,
2013-10-25 17:59:00,48.0,29.0,30.01,WSW,250,12.0,-999.0,49,-99.99,,,0.00,weatherlink.com 1.10,2013-10-25 22:59:00,
2013-10-25 18:14:00,47.8,29.0,30.00,SW,217,1.0,-999.0,49,-99.99,,,0.00,weatherlink.com 1.10,2013-10-25 23:14:00,
2013-10-25 18:29:00,47.4,29.0,29.98,SSW,205,5.0,-999.0,50,-99.99,,,0.00,weatherlink.com 1.10,2013-10-25 23:29:00,
2013-10-25 18:44:00,47.7,30.0,29.98,WSW,242,3.0,-999.0,50,-99.99,,,0.00,weatherlink.com 1.10,2013-10-25 23:44:00,
2013-10-25 18:59:00,47.5,29.0,29.97,WSW,242,8.0,-999.0,49,-99.99,,,0.00,weatherlink.com 1.10,2013-10-25 23:59:00,
2013-10-25 19:14:00,47.2,29.0,29.96,South,186,6.0,-999.0,49,-99.99,,,0.00,weatherlink.com 1.10,2013-10-26 00:14:00,
2013-10-25 19:29:00,47.2,28.0,29.95,SW,215,15.0,-999.0,48,-99.99,,,0.00,weatherlink.com 1.10,2013-10-26 00:29:00,
2013-10-25 19:44:00,47.3,28.0,29.95,SW,225,2.0,-999.0,48,-99.99,,,0.00,weatherlink.com 1.10,2013-10-26 00:44:00,
2013-10-25 19:59:00,47.6,28.0,29.95,WSW,252,18.0,-999.0,47,-99.99,,,0.00,weatherlink.com 1.10,2013-10-26 00:59:00,
2013-10-25 20:14:00,47.7,29.0,29.94,WNW,286,7.0,-999.0,48,-99.99,,,0.00,weatherlink.com 1.10,2013-10-26 01:14:00,
2013-10-25 20:29:00,47.6,29.0,29.92,WSW,247,11.0,-999.0,48,-99.99,,,0.00,weatherlink.com 1.10,2013-10-26 01:29:00,
2013-10-25 20:44:00,47.8,29.0,29.91,SW,229,11.0,-999.0,48,-99.99,,,0.00,weatherlink.com 1.10,2013-10-26 01:44:00,
2013-10-25 20:59:00,47.9,29.0,29.91,West,281,19.0,-999.0,48,-99.99,,,0.00,weatherlink.com 1.10,2013-10-26 01:59:00,
2013-10-25 21:14:00,47.9,29.0,29.92,SSW,210,10.0,-999.0,49,-99.99,,,0.00,weatherlink.com 1.10,2013-10-26 02:14:00,
2013-10-25 21:29:00,48.0,30.0,29.91,West,261,8.0,-999.0,50,-99.99,,,0.00,weatherlink.com 1.10,2013-10-26 02:29:00,
2013-10-25 21:44:00,48.1,30.0,29.91,West,277,22.0,-999.0,50,-99.99,,,0.00,weatherlink.com 1.10,2013-10-26 02:44:00,
2013-10-25 21:59:00,47.9,30.0,29.89,West,267,15.0,-999.0,51,-99.99,,,0.00,weatherlink.com 1.10,2013-10-26 02:59:00,
2013-10-25 22:14:00,48.3,31.0,29.89,West,277,18.0,-999.0,51,-99.99,,,0.00,weatherlink.com 1.10,2013-10-26 03:14:00,
2013-10-25 22:29:00,48.4,31.0,29.89,WSW,249,16.0,-999.0,51,-99.99,,,0.00,weatherlink.com 1.10,2013-10-26 03:29:00,
2013-10-25 22:44:00,48.7,31.0,29.88,WSW,248,12.0,-999.0,51,-99.99,,,0.00,weatherlink.com 1.10,2013-10-26 03:44:00,
2013-10-25 22:59:00,48.7,31.0,29.87,West,277,16.0,-999.0,51,-99.99,,,0.00,weatherlink.com 1.10,2013-10-26 03:59:00,
2013-10-25 23:14:00,48.5,31.0,29.86,WSW,256,6.0,-999.0,52,-99.99,,,0.00,weatherlink.com 1.10,2013-10-26 04:14:00,
2013-10-25 23:29:00,48.6,31.0,29.85,WSW,258,14.0,-999.0,52,-99.99,,,0.00,weatherlink.com 1.10,2013-10-26 04:29:00,
2013-10-25 23:44:00,48.8,31.0,29.84,WSW,252,19.0,-999.0,51,-99.99,,,0.00,weatherlink.com 1.10,2013-10-26 04:44:00,
2013-10-25 23:59:00,48.8,31.0,29.83,WSW,244,13.0,-999.0,51,-99.99,,,0.00,weatherlink.com 1.10,2013-10-26 04:59:00,